Simultaneous Nadir Overpasses (SNOs) Predictions

Prediction of SNOs between GOES-15 and NOAA-20 Satellite Orbit:

Table of predicted SNOs for the next 14.0 days since TLE Epoch: 4/16/2022
Index Date Time (GOES-15) GOES-15 Lat,Lon NOAA-20 Lat,Lon Distance(km) Time Diff (sec)
1 04/18/2022 10:02:16 0.12,-128.35 0.22,-128.82 53.04 80
2 04/19/2022 09:40:51 0.13,-128.34 -0.77,-124.29 462.06 80
3 04/20/2022 22:02:49 -0.12,-128.34 -0.40,-129.59 142.59 80
4 04/21/2022 21:46:44 -0.13,-128.32 0.60,-125.06 372.33 80
5 04/23/2022 10:05:52 0.12,-128.28 0.60,-130.32 232.92 80
6 04/24/2022 09:47:08 0.13,-128.26 -0.40,-125.78 281.68 80
7 04/25/2022 22:09:05 -0.13,-128.25 -0.77,-131.09 324.02 80
8 04/26/2022 21:53:01 -0.13,-128.23 0.23,-126.56 190.85 80
9 04/28/2022 10:12:09 0.12,-128.20 0.96,-131.82 413.97 80
10 04/29/2022 09:56:06 0.13,-128.18 -0.09,-127.30 100.53 80
